Simultaneous Nadir Overpasses (SNOs) Predictions

Prediction of SNOs between LANDSAT-8 and NPP Satellite Orbit:

Table of predicted SNOs for the next 14.0 days since TLE Epoch: 7/27/2015
Index Date (LANDSAT-8) Time (LANDSAT-8) Lat,Lon (LANDSAT-8) SZA (LANDSAT-8 ) Date (NPP) Time (NPP) Lat,Lon (NPP) SZA (NPP ) Distance(km) Time Diff (sec)
1 07/28/2015 03:40:07 -70.57, -57.99 128.54 07/28/2015 03:39:02 -70.54, -58.01 128.55 3.10 65
2 07/28/2015 04:29:35 70.42, 109.43 51.33 07/28/2015 04:29:46 70.44, 109.46 51.36 2.72 11
3 07/28/2015 05:19:11 -69.97, -83.58 129.09 07/28/2015 05:20:21 -69.97, -82.50 129.13 40.84 70
4 07/30/2015 19:56:37 -70.49, 57.78 127.98 07/30/2015 19:55:53 -70.49, 57.84 127.97 2.11 44
5 07/30/2015 20:46:04 70.39,-134.72 51.94 07/30/2015 20:46:37 70.39,-134.70 51.94 0.98 33
6 08/02/2015 11:23:25 71.23, 7.17 53.39 08/02/2015 11:22:17 71.28, 4.98 53.53 78.46 68
7 08/02/2015 12:13:07 -70.46, 173.62 127.34 08/02/2015 12:12:45 -70.44, 173.68 127.35 3.17 22
8 08/02/2015 13:02:34 70.36, -18.89 52.58 08/02/2015 13:03:29 70.35, -18.86 52.56 1.76 55
9 08/05/2015 03:40:07 70.54, 121.98 53.43 08/05/2015 03:38:56 70.56, 121.96 53.46 2.50 71
10 08/05/2015 04:29:37 -70.43, -70.55 126.67 08/05/2015 04:29:38 -70.45, -70.56 126.64 2.27 1
11 08/05/2015 05:19:07 70.16, 96.70 53.09 08/05/2015 05:20:18 70.14, 97.23 53.05 19.92 71
12 08/07/2015 19:56:37 70.49,-122.20 54.12 08/07/2015 19:55:48 70.51,-122.20 54.15 2.25 49
13 08/07/2015 20:46:07 -70.39, 45.28 125.97 08/07/2015 20:46:30 -70.40, 45.29 125.96 1.62 23
14 08/10/2015 12:13:06 70.45, -6.38 54.84 08/10/2015 12:12:39 70.47, -6.36 54.87 2.97 27
15 08/10/2015 13:02:36 -70.34, 161.10 125.25 08/10/2015 13:03:21 -70.36, 161.13 125.24 2.06 45




NCC Satellite Simultaneous Nadir Overpasses (SNOs) Prediction Service
